Home   Weather   Syracuse   Past weeks

Flag for USA Past Weather in Syracuse, New York, USA — Yesterday and Last 2 Weeks

Now
39 °F

Cloudy.


Feels Like: 32 °F
Forecast: 33 / 41 °F
Wind: 12 mph from West

Location: Syracuse Hancock International Airport

Current Time: Dec 7, 2016 at 9:39:08 am

Latest Report: Dec 7, 2016 at 8:54 am


Visibility: 10 mi

Pressure: 29.92 "Hg

Humidity: 89%

Dew Point: 36 °F

Location of SyracuseLocation

Past Weather in Syracuse — Graph

°F

Syracuse Temperature Yesterday

Maximum temperature yesterday: 42 °F (at 12:54 pm)
Minimum temperature yesterday: 27 °F (at 6:54 am)
Average temperature yesterday: 36 °F

High & Low Weather Summary for the Past Weeks

 TemperatureHumidityPressure
High55 °F (Nov 29, 12:54 pm)100% (Nov 24, 6:54 pm)30.36 "Hg (Nov 24, 6:54 pm)
Low27 °F (Dec 6, 6:54 am)57% (Dec 4, 1:54 pm)29.34 "Hg (Nov 30, 11:54 pm)
Average37 °F84%30.01 "Hg
* Reported Nov 22 8:54 am — Dec 7 8:01 am, Syracuse, Weather by CustomWeather, © 2016

Note: Actual official high and low records may vary slightly from our data, if they occured in-between our weather recording intervals... More about our weather records

Advertising

Syracuse Weather History for the Previous 24 Hours

Scroll right to see more
 ConditionsComfort  
Time TempWeatherWind HumidityBarometerVisibility
8:01 am
Wed, Dec 7
38 °FMostly cloudy.9 mph93%29.90 "Hg10 mi
6:57 am36 °FOvercast.5 mph100%29.88 "Hg10 mi
5:54 am33 °FFog.3 mph100%29.87 "Hg6 mi
4:54 am33 °FLight snow. Fog.6 mph100%29.85 "Hg5 mi
4:01 am32 °FLight snow. Ice fog.6 mph100%29.85 "Hg5 mi
3:54 am32 °FLight snow. Ice fog.5 mph100%29.85 "Hg5 mi
2:56 am32 °FLight snow. Ice fog.9 mph100%29.85 "Hg5 mi
1:54 am32 °FLight snow. Ice fog.12 mph100%29.84 "Hg5 mi
12:54 am32 °FLight snow. Ice fog.8 mph100%29.85 "Hg4 mi
11:54 pm
Tue, Dec 6
32 °FLight snow. Ice fog.8 mph100%29.85 "Hg4 mi
11:03 pm32 °FLight snow. Ice fog.7 mph100%29.86 "Hg2 mi
9:54 pm33 °FLight rain. Fog.6 mph100%29.88 "Hg4 mi
8:54 pm34 °FLight rain. Fog.6 mph97%29.88 "Hg5 mi
7:54 pm38 °FMostly cloudy.7 mph76%29.89 "Hg10 mi
6:54 pm38 °FOvercast.7 mph79%29.90 "Hg10 mi
5:54 pm38 °FOvercast.6 mph76%29.90 "Hg10 mi
4:54 pm39 °FOvercast.12 mph73%29.89 "Hg10 mi
3:54 pm40 °FOvercast.10 mph68%29.89 "Hg10 mi
2:54 pm41 °FMore clouds than sun.10 mph67%29.90 "Hg10 mi
1:54 pm42 °FMore clouds than sun.12 mph62%29.94 "Hg10 mi
12:54 pm42 °FOvercast.10 mph62%29.97 "Hg10 mi
11:54 am40 °FCloudy.9 mph77%30.01 "Hg10 mi
10:54 am39 °FCloudy.7 mph76%30.06 "Hg10 mi
9:54 am37 °FBroken clouds.6 mph82%30.09 "Hg10 mi
Weather by CustomWeather, © 2016

See weather overviewHow to use our weather pages